GFSMW_prec_cloud_219.txt.gz
Cloud_Cover
100 96 5 1 6 18 79 62 40 17 85 60 36 100 100 100 100 100 100 100 100 100 100 100 100 100 100 100 100 100 100 100 100 100 100 100 100 86 84 17 90 38 5
100 100 76 5 0 4 5 16 15 74 38 51 13 80 100 100 100 100 100 100 100 100 100 100 100 100 100 100 100 100 100 100 97 100 100 100 100 100 100 95 93 99 37
100 100 82 86 10 5 29 12 7 90 5 5 5 5 14 5 59 100 100 100 100 100 100 100 100 93 100 100 100 100 100 100 100 100 100 100 100 100 100 100 64 73 80
100 100 72 8 5 94 100 100 15 9 5 46 6 5 5 4 5 24 76 100 100 100 99 100 100 100 100 100 100 100 100 100 100 100 100 100 100 100 100 100 59 18 70
100 100 100 92 94 98 100 66 15 60 13 46 5 8 6 5 5 78 100 96 100 100 100 100 100 100 100 100 100 100 100 100 100 100 99 100 100 100 100 100 100 100 100
100 100 100 100 100 26 97 76 59 24 95 100 100 100 91 28 5 55 81 99 100 100 100 100 100 100 100 100 100 100 94 100 95 93 100 100 100 100 100 100 100 100 100
100 100 100 100 100 100 10 72 90 80 88 100 100 54 60 98 98 100 100 100 100 100 100 100 100 100 89 68 100 88 100 100 100 100 100 100 100 100 100 100 100 100 100
100 100 97 35 78 55 76 57 63 98 100 100 100 14 9 57 33 66 100 100 100 100 100 100 100 100 100 44 95 89 67 100 100 100 100 99 100 100 100 100 100 100 99
100 100 72 37 95 68 97 100 100 100 100 100 78 44 73 99 100 100 81 87 62 71 78 39 72 80 47 69 96 100 100 100 100 99 95 70 32 66 91 100 100 100 100
100 100 100 100 100 100 100 100 100 100 100 100 100 92 100 85 100 100 96 97 56 89 54 12 73 100 100 100 100 100 98 100 100 66 21 43 55 100 92 40 94 100 100
100 100 100 100 100 100 100 100 100 100 73 24 21 55 100 100 95 38 99 99 72 67 98 89 100 100 100 100 100 100 100 100 100 96 92 95 100 100 100 100 100 92 100
100 100 100 100 100 100 100 100 79 66 36 8 5 14 97 17 78 8 54 69 95 100 100 100 100 100 100 100 100 100 100 88 100 100 100 100 99 92 100 100 100 100 100
100 100 100 100 100 100 98 100 60 78 94 48 53 93 20 7 77 100 99 100 100 100 100 100 100 100 100 100 100 100 66 55 82 100 100 100 100 100 100 91 100 100 100
100 100 100 100 100 100 100 100 100 100 100 100 100 99 100 100 100 100 100 100 100 100 100 100 100 100 100 100 100 98 97 100 100 100 100 100 100 100 100 100 100 100 100
100 100 100 100 100 99 100 100 93 97 88 100 100 91 99 91 42 96 100 100 100 100 100 100 100 100 100 100 85 100 100 100 100 99 87 100 100 100 100 100 100 100 100
100 97 100 87 98 97 86 42 100 100 80 100 100 100 100 100 100 100 100 100 100 100 100 100 100 100 100 100 98 100 100 100 100 100 100 100 100 100 100 100 100 100 100
100 100 99 99 94 96 51 75 47 74 34 78 99 100 100 100 100 100 100 100 100 100 100 100 100 100 99 100 100 100 100 100 100 100 100 100 100 96 100 100 99 100 100
65 49 92 100 95 73 33 72 94 97 100 100 100 99 100 100 100 98 100 100 100 100 100 100 100 100 100 100 100 100 100 100 100 100 100 100 100 97 100 100 88 100 100
100 96 100 100 44 54 91 100 100 100 100 100 98 97 99 42 99 100 100 100 100 100 100 100 100 100 100 100 100 98 100 100 100 100 100 100 100 100 77 100 100 100 100
97 94 94 100 100 100 100 100 100 100 100 8 98 82 98 66 82 90 100 100 100 100 100 100 98 100 100 92 100 100 100 100 100 86 49 57 87 100 67 100 100 100 100
100 100 100 100 100 100 100 100 100 98 99 34 90 100 74 64 100 100 84 96 100 100 100 98 100 90 91 100 100 100 100 100 100 100 97 5 5 25 75 97 100 100 100
100 100 100 81 100 100 98 19 81 100 27 27 17 100 92 87 98 100 100 100 100 100 100 100 97 100 100 100 100 100 100 100 100 92 16 16 5 5 5 11 98 100 100
100 100 100 100 100 87 100 100 48 94 100 74 100 89 100 92 100 100 100 100 100 100 100 100 100 100 100 100 100 100 100 100 100 100 92 5 5 5 11 5 5 100 100
100 100 100 100 100 100 100 100 100 64 52 52 21 100 100 100 100 100 100 100 100 100 100 100 100 100 100 100 100 100 100 100 100 99 80 38 5 68 37 5 87 100 100
100 100 100 100 100 98 100 72 99 100 74 82 100 100 100 100 100 100 100 100 100 100 100 100 100 100 100 100 100 100 100 100 100 46 69 59 68 73 56 7 97 100 100
100 100 96 100 100 100 100 100 100 97 100 83 64 100 100 100 100 100 100 100 100 100 100 100 100 100 100 100 100 100 100 100 66 70 80 79 75 79 77 60 100 100 100

GFSMW_prec_cloud_222.txt.gz
Cloud_Cover
100 72 5 5 98 20 91 100 60 100 12 100 100 100 100 100 100 100 100 100 100 100 100 100 100 83 58 39 98 100 100 100 100 100 83 100 100 100 100 100 100 100 100
100 100 75 84 88 10 16 70 86 47 8 85 81 99 47 82 100 96 100 100 100 100 100 100 100 100 100 53 99 100 100 100 100 99 100 100 100 100 100 100 100 100 100
100 100 100 2 42 4 1 6 53 97 100 100 88 96 100 100 100 100 96 100 100 100 100 100 94 82 100 100 79 90 97 86 100 100 100 100 100 100 100 100 100 100 95
100 100 100 73 0 1 0 0 5 15 100 100 55 20 5 15 5 5 58 5 5 39 70 20 65 100 100 82 100 98 100 100 100 100 100 100 100 100 100 100 100 93 78
100 100 100 100 4 0 2 7 5 4 6 5 15 56 51 75 60 44 29 8 40 5 5 23 93 100 100 100 100 100 100 100 100 100 100 100 100 99 100 100 100 100 100
100 100 100 100 95 88 34 97 54 49 69 68 70 60 53 29 53 98 49 14 5 76 59 86 100 100 100 100 100 99 100 99 100 97 99 100 100 100 100 93 96 100 100
100 100 100 100 100 97 99 7 18 73 69 100 45 6 30 100 97 93 80 96 98 53 32 28 44 22 91 100 100 83 100 100 90 95 94 83 100 100 100 100 99 100 100
55 100 100 100 100 100 100 99 14 21 12 14 7 52 99 100 100 100 100 95 5 5 5 5 8 6 49 92 59 72 38 41 31 95 100 100 100 100 100 100 100 100 100
5 5 38 99 100 98 94 76 82 64 98 27 100 100 100 100 100 100 99 11 6 5 5 5 5 5 6 68 7 98 100 100 100 100 100 100 100 100 100 100 100 100 100
43 78 58 99 100 100 100 100 100 85 58 100 100 100 100 100 92 71 61 5 5 5 5 22 68 66 76 67 64 94 100 100 100 100 100 100 100 86 49 91 62 37 100
100 100 100 100 100 100 100 94 100 100 100 100 100 100 100 66 32 70 68 5 5 5 78 100 99 80 37 68 100 100 100 86 100 100 100 100 87 97 100 99 95 100 100
100 100 86 100 100 100 100 100 100 100 100 100 100 100 87 20 6 5 65 12 24 99 100 91 100 93 100 100 100 100 100 100 100 100 100 100 100 100 100 100 100 100 100
100 100 91 100 100 100 100 100 100 100 100 100 100 63 28 15 63 100 46 85 100 100 100 100 93 100 100 100 100 100 100 100 100 100 100 100 100 100 100 100 100 100 93
100 100 100 100 100 100 100 100 100 100 100 100 88 86 85 99 99 92 62 100 100 100 100 100 100 100 100 100 100 100 100 100 100 100 100 100 100 100 100 100 100 100 100
95 60 100 100 100 100 100 100 100 100 100 100 100 100 100 100 100 100 100 100 100 100 100 100 100 100 100 100 100 100 100 100 100 100 100 100 100 100 100 100 100 100 100
50 99 100 100 100 100 100 100 100 100 100 100 100 100 73 100 100 100 100 100 100 100 100 100 100 100 100 100 100 100 100 100 100 100 100 100 100 98 37 100 100 100 100
99 100 100 100 100 100 63 98 100 100 100 100 95 100 100 98 98 100 100 100 100 100 100 100 100 100 100 100 100 100 100 100 100 100 100 100 100 100 20 100 99 100 100
100 100 100 100 100 100 100 100 99 54 85 99 34 98 34 71 100 100 100 100 88 82 100 98 100 100 100 100 100 97 100 100 100 100 100 100 100 100 94 100 100 100 100
79 100 100 100 100 100 71 76 99 100 100 100 100 92 40 64 100 100 100 98 99 100 100 100 100 100 100 100 100 100 100 98 100 100 100 100 100 100 46 100 76 100 100
100 100 100 100 100 100 100 100 100 100 100 98 53 23 9 100 100 100 100 63 95 100 100 100 100 98 50 76 100 99 100 100 100 85 100 100 100 100 48 99 85 59 97
90 100 100 100 100 100 100 100 100 100 100 98 7 33 100 69 98 100 100 100 100 100 100 100 100 100 100 100 58 85 99 100 100 100 100 100 87 48 56 89 93 98 94
92 96 100 100 100 100 100 100 100 100 40 100 42 98 100 100 100 100 100 95 100 100 100 100 100 100 100 100 90 56 99 100 100 100 100 72 6 100 9 17 69 100 98
100 100 100 100 100 100 99 97 97 74 95 100 100 100 100 100 95 100 100 100 100 100 100 100 100 100 100 100 100 100 100 100 100 100 100 77 97 91 14 5 5 16 86
100 100 100 100 100 100 100 100 83 100 100 100 100 100 100 100 100 100 100 100 100 100 100 100 100 100 100 100 100 100 100 100 100 100 100 77 58 97 64 54 44 11 33
100 100 100 100 100 100 100 100 100 95 79 86 84 100 100 100 100 100 100 100 100 100 100 100 100 100 100 100 100 100 100 100 100 100 100 66 99 70 68 70 71 64 58
100 100 100 100 100 100 100 100 100 100 100 100 100 100 100 100 100 100 100 100 100 100 100 100 100 100 87 100 100 100 100 100 100 100 100 100 100 86 82 90 94 77 57

GFSMW_prec_cloud_225.txt.gz
Cloud_Cover
5 5 20 43 100 100 100 100 100 5 24 48 54 100 100 100 74 28 78 46 96 100 100 100 100 100 100 100 100 100 100 100 100 100 100 100 100 100 100 99 100 100 100
5 6 14 42 66 47 49 100 100 60 58 26 100 53 100 100 100 100 100 100 100 100 100 100 96 100 100 100 97 100 100 100 100 100 100 100 100 100 100 100 100 100 100
5 10 25 28 82 74 83 100 99 60 81 77 100 67 97 100 100 100 100 100 100 100 100 100 100 100 100 100 95 100 100 100 100 100 100 100 100 100 100 100 100 100 100
5 8 68 11 63 99 77 48 38 35 9 57 100 100 100 100 96 100 100 100 100 100 84 99 99 72 84 74 64 100 100 100 100 99 97 100 100 100 100 100 100 100 100
71 98 100 7 5 32 8 4 6 88 55 94 100 100 98 99 84 100 72 100 78 99 100 100 100 100 100 100 100 100 100 96 93 100 99 89 95 100 100 100 100 100 100
11 92 94 100 64 40 43 22 9 39 100 100 98 80 70 79 100 55 67 77 100 100 100 99 99 100 100 100 100 54 30 98 97 100 99 79 91 89 91 100 100 100 100
47 95 95 100 100 60 97 7 5 41 100 100 100 89 32 9 14 11 79 100 95 85 96 100 100 100 18 6 5 5 12 67 89 63 60 98 100 84 90 98 98 95 100
40 100 100 100 100 100 54 99 36 52 100 100 99 96 43 50 67 66 13 77 69 100 99 100 42 8 5 5 9 35 60 95 35 55 84 59 26 54 92 100 82 100 100
63 59 100 100 100 100 100 100 47 97 97 88 100 99 100 97 100 64 26 64 100 100 100 97 100 62 37 100 100 100 99 98 70 45 32 71 100 100 100 76 100 100 100
5 5 33 82 100 100 100 100 100 96 99 96 100 93 6 76 76 91 100 100 100 100 100 100 100 100 99 100 100 100 100 62 63 66 100 98 85 91 29 100 100 100 100
8 12 5 5 5 73 100 100 98 91 83 76 98 99 72 94 100 100 100 100 100 100 100 96 100 54 5 18 38 44 9 7 88 99 99 32 71 69 97 100 100 100 99
36 53 18 5 6 80 100 100 100 97 93 84 100 100 100 100 100 100 100 100 100 100 100 94 24 8 5 5 23 90 98 92 98 100 100 77 100 100 100 100 100 100 100
67 16 5 44 100 100 100 100 100 100 100 100 100 100 93 88 100 100 100 93 86 95 85 26 24 46 22 64 100 100 97 100 100 100 100 100 100 100 100 100 100 100 100
82 61 18 52 92 100 100 100 100 100 100 100 100 100 100 100 100 100 100 100 100 100 97 50 36 94 100 100 100 98 100 100 100 100 100 100 100 100 100 100 100 100 100
98 66 23 95 72 100 100 100 100 94 100 100 100 100 100 100 100 100 100 100 100 100 100 100 100 100 100 100 100 100 100 100 100 100 100 100 100 100 100 100 100 100 100
100 88 89 54 100 100 100 100 100 100 100 100 100 100 100 100 100 100 100 100 100 100 90 100 100 100 100 100 100 100 100 100 100 100 100 100 100 100 99 27 97 100 100
94 26 31 61 66 99 100 100 100 99 57 100 100 100 100 100 100 100 93 87 94 71 73 98 100 100 100 100 100 100 100 100 100 100 100 100 100 100 100 8 67 100 100
100 100 100 100 100 92 100 100 66 47 75 100 100 100 100 100 99 100 100 100 100 100 100 100 100 100 100 100 100 100 100 100 100 100 100 100 100 100 100 5 57 91 99
100 100 100 100 100 100 100 80 94 93 91 85 100 100 100 100 100 100 100 100 98 100 100 100 100 100 100 100 100 100 100 100 100 99 12 100 100 100 83 77 48 35 51
100 100 70 100 100 100 100 100 90 100 98 100 97 100 100 100 100 100 100 90 26 100 100 100 98 100 100 100 88 100 100 100 100 98 28 5 9 100 92 95 79 76 62
100 100 100 100 100 100 100 100 97 100 96 100 100 60 69 94 100 100 90 36 33 97 100 100 100 100 92 100 100 90 83 100 100 86 58 61 94 5 63 100 100 99 68
100 100 100 100 100 100 100 100 100 92 78 97 97 84 72 97 98 78 32 69 100 100 100 100 91 98 100 100 100 100 83 54 30 93 96 74 76 84 82 86 94 19 88
100 100 100 100 100 100 100 100 100 100 100 100 100 100 100 100 100 100 100 100 100 100 100 100 100 98 100 100 100 100 100 72 54 100 99 100 100 57 32 99 62 28 6
100 100 100 100 100 100 100 100 100 100 100 100 100 100 100 100 100 100 100 100 100 100 100 100 100 100 100 100 100 100 100 77 100 100 100 100 100 99 76 96 49 45 63
100 100 100 100 100 100 100 100 100 100 100 100 100 100 100 100 100 100 100 100 100 90 100 100 100 100 100 96 95 89 98 80 100 100 100 100 100 100 86 92 71 62 9
100 100 100 100 100 100 100 100 100 100 100 100 100 100 100 100 100 100 100 100 100 100 100 100 100 100 100 100 100 100 98 100 100 100 100 100 100 100 100 100 92 79 55

GFSMW_prec_cloud_231.txt.gz
Cloud_Cover
16 100 100 49 0 4 5 26 5 24 97 99 97 88 71 100 100 100 100 100 57 100 100 39 66 93 91 71 98 100 92 50 60 84 30 31 25 65 30 100 100 21 5
48 100 100 100 22 0 5 71 47 5 38 42 82 100 100 100 100 100 100 100 100 100 100 100 98 99 100 100 100 100 100 87 100 100 100 87 48 52 6 5 5 33 15
100 100 100 100 100 32 8 94 24 48 18 5 92 99 98 100 100 100 100 100 100 100 87 100 100 100 100 100 100 100 100 100 98 100 84 100 86 23 5 5 14 22 12
100 100 100 100 100 100 70 20 2 2 5 7 59 90 79 95 76 99 100 100 100 100 99 100 100 100 100 100 100 100 100 100 100 91 94 99 100 100 98 92 95 100 84
5 100 100 100 100 100 100 96 16 15 18 33 5 45 92 100 99 83 100 100 100 100 100 100 97 93 100 100 100 96 94 39 86 90 100 100 90 71 78 100 100 100 98
5 15 100 58 94 91 100 100 100 74 72 70 46 13 96 66 74 97 71 82 100 100 80 97 95 96 76 53 59 82 100 94 94 83 100 100 100 48 95 52 97 100 100
82 42 100 93 90 62 41 74 56 95 100 100 100 74 73 100 100 79 48 85 80 87 70 29 24 50 100 100 100 99 99 100 81 99 100 100 83 80 92 100 100 69 100
100 24 34 100 100 69 99 94 99 97 100 100 100 89 88 67 90 100 97 89 80 88 51 59 100 100 100 100 94 98 100 100 100 100 100 100 100 100 62 99 100 100 97
82 64 100 100 100 100 100 100 100 100 100 100 100 99 100 100 99 100 100 99 100 100 100 100 98 93 86 90 100 100 100 100 100 100 100 79 90 100 100 100 100 60 96
98 100 100 100 100 100 100 100 100 100 100 100 72 87 100 99 98 92 90 72 97 93 84 54 58 6 39 100 100 100 100 100 100 100 100 100 100 100 100 100 100 100 96
16 100 100 100 100 100 100 100 100 100 100 100 86 100 68 94 97 69 100 100 56 86 95 95 93 93 100 100 100 100 100 100 100 100 100 100 90 100 100 100 100 100 100
100 100 100 100 100 100 100 100 100 100 74 48 100 100 100 67 25 48 96 100 100 87 44 99 99 100 96 88 100 100 100 100 100 100 100 100 94 82 98 100 100 100 100
100 100 100 100 100 100 100 100 100 100 99 100 100 84 37 89 85 100 99 100 99 92 94 98 93 99 92 100 100 100 100 100 100 100 100 100 100 100 99 87 77 98 81
100 64 52 100 100 100 100 100 100 100 100 88 28 89 88 78 57 98 98 85 87 100 100 100 99 93 91 72 56 99 100 100 100 100 100 97 99 100 84 94 87 97 100
100 100 99 100 100 100 100 100 100 100 100 100 95 100 43 74 58 84 91 100 86 84 63 92 96 98 98 84 73 99 100 100 100 100 100 100 92 99 100 90 100 100 100
100 100 100 94 5 64 50 57 81 100 100 100 100 96 44 30 63 88 58 67 90 98 100 100 100 100 100 100 100 95 100 99 100 100 100 100 100 79 100 96 81 100 100
100 100 100 100 100 100 100 100 100 100 100 91 100 100 75 67 100 100 60 100 85 100 100 100 100 100 100 85 90 100 100 100 100 100 100 100 100 100 100 100 75 44 80
100 100 100 100 100 100 100 100 100 100 96 96 97 100 100 100 100 100 100 100 100 100 100 100 97 87 93 100 91 100 75 98 100 90 100 100 100 100 100 96 100 48 68
100 100 100 100 100 100 100 100 100 100 100 100 100 100 100 100 100 100 100 100 100 100 100 100 100 100 87 100 98 85 100 100 85 100 68 73 100 100 100 100 80 50 55
100 100 100 100 100 100 100 100 100 100 100 100 96 100 100 100 100 100 100 100 100 100 100 100 100 100 97 100 100 100 100 100 100 100 100 100 100 100 100 100 80 31 53
100 100 65 6 100 95 78 96 100 100 100 100 100 100 100 100 100 100 100 100 100 100 100 100 95 100 100 100 100 100 100 100 100 100 100 100 100 66 5 21 35 46 17
100 100 100 100 69 6 79 6 84 97 100 100 100 100 100 100 100 100 100 100 100 100 100 100 100 100 100 100 100 100 100 100 100 100 100 100 24 5 5 5 5 5 8
100 100 100 100 100 100 100 100 100 100 100 100 100 100 100 100 100 100 100 100 100 100 100 100 100 100 100 100 100 100 100 100 100 100 100 20 5 5 6 5 5 5 6
100 100 100 100 100 100 100 100 100 98 100 100 100 100 100 94 100 100 100 100 100 100 100 100 100 100 100 100 100 100 100 100 100 100 35 27 5 16 5 5 5 5 5
100 100 100 100 100 100 100 100 100 100 100 100 100 100 100 100 100 100 100 100 100 100 100 100 100 100 100 100 100 100 100 100 68 47 32 21 18 20 25 19 5 5 5
85 100 100 100 100 100 100 100 100 100 100 100 100 100 100 100 100 100 100 100 100 100 85 99 100 100 100 98 100 100 100 100 31 32 56 54 16 6 8 39 17 5 5

GFSMW_prec_cloud_237.txt.gz
Cloud_Cover
28 100 100 100 10 2 12 100 98 56 100 100 5 5 5 5 9 47 92 100 100 100 100 100 100 100 75 100 100 100 100 100 100 100 100 99 100 99 85 100 100 100 100
45 100 100 100 100 12 12 100 100 10 85 100 18 5 5 5 12 5 5 13 80 100 100 100 100 100 96 100 100 100 74 58 100 96 100 31 92 80 100 40 22 84 17
64 95 100 100 94 27 7 100 100 75 5 100 100 42 11 12 5 5 5 69 85 100 100 98 100 100 100 100 100 60 52 100 79 80 62 72 59 87 38 82 11 12 34
5 2 74 100 100 96 23 100 100 96 36 64 100 100 18 5 6 26 6 22 48 100 100 79 29 100 100 85 88 67 86 92 81 93 98 95 100 100 100 7 28 88 100
41 0 4 49 32 98 100 62 100 100 100 87 100 100 100 5 66 32 19 100 82 53 27 63 97 82 65 93 92 100 85 100 34 100 75 84 95 100 99 100 98 100 100
98 32 4 32 46 19 83 100 100 100 100 100 100 99 100 100 72 7 5 50 64 92 85 100 100 100 100 100 100 100 82 95 87 42 5 5 92 91 100 100 100 100 100
26 3 0 5 5 6 14 12 100 87 100 68 97 100 100 100 100 62 17 100 100 100 100 100 100 100 100 100 100 90 45 78 99 18 5 5 80 98 100 100 100 100 100
0 0 0 0 5 4 9 100 93 91 71 100 100 100 100 100 100 100 63 100 100 100 100 100 100 100 100 76 66 97 99 100 19 13 9 100 85 18 100 100 66 80 100
0 0 0 0 5 5 1 100 100 87 38 100 100 100 100 100 100 98 66 100 100 100 100 100 100 100 98 84 91 52 95 64 5 33 92 32 25 100 100 100 100 100 100
0 0 0 0 5 5 4 81 97 66 10 99 86 92 99 100 100 100 98 100 100 100 100 100 100 100 94 90 94 96 94 100 100 100 89 97 99 86 91 95 98 99 55
0 0 4 1 9 87 9 25 66 5 5 21 63 95 100 100 100 100 100 100 100 100 100 94 100 100 95 100 81 100 97 95 24 81 73 94 83 100 100 83 53 54 100
10 0 0 2 45 88 79 91 100 40 6 63 100 100 100 100 100 100 100 100 100 79 64 82 100 98 100 91 80 96 100 84 69 83 74 93 100 100 100 99 100 100 100
42 22 0 0 1 76 91 96 42 100 81 90 100 100 100 100 100 100 100 100 97 99 79 100 97 97 85 80 88 96 82 87 74 61 96 73 97 49 100 100 100 100 100
50 6 1 0 0 17 100 99 99 100 100 100 100 100 100 100 100 100 100 100 96 100 100 100 100 100 94 80 83 89 71 88 56 80 94 47 62 100 100 100 100 100 100
60 4 0 2 4 5 38 100 100 100 100 100 100 100 100 100 100 100 100 100 100 100 100 100 100 100 78 100 100 62 59 28 100 100 100 60 100 100 100 100 100 100 100
90 16 0 74 2 48 13 32 100 100 100 100 100 100 100 100 100 100 100 100 100 100 100 100 100 100 62 95 94 100 100 99 100 100 19 97 100 91 100 100 100 97 100
100 99 18 5 100 11 5 40 85 100 100 100 100 100 100 100 100 100 100 100 99 99 100 100 100 100 100 94 100 100 100 100 100 100 100 100 83 94 100 100 100 100 33
100 100 100 93 82 97 11 5 50 100 100 100 100 100 100 100 100 100 100 100 100 100 100 100 100 100 100 100 100 100 100 100 100 100 100 87 98 100 100 100 100 100 100
100 100 100 100 100 100 100 89 97 93 100 100 100 100 100 100 100 100 100 100 100 94 100 100 100 100 100 100 100 100 100 100 100 100 62 93 99 100 100 100 100 100 73
84 100 100 100 100 12 100 100 100 100 100 100 100 100 100 100 100 100 100 100 100 100 100 100 100 100 100 100 100 100 100 100 100 99 99 100 100 100 100 100 100 100 60
60 100 100 100 100 100 82 94 100 100 100 100 100 100 100 100 100 100 100 100 100 100 100 100 100 100 100 100 100 100 100 100 99 97 100 100 100 100 100 100 100 99 85
5 83 100 100 63 60 100 100 100 100 100 100 100 100 100 100 100 100 100 100 100 100 100 100 100 100 100 100 91 100 87 98 100 100 92 100 100 100 100 100 100 99 19
16 5 62 70 99 5 99 100 100 100 100 100 100 100 100 100 100 100 100 100 100 100 100 100 100 100 100 100 100 100 99 100 100 100 97 93 100 100 100 100 51 5 19
77 91 97 100 100 38 10 61 100 100 100 100 100 100 100 100 100 100 100 100 100 100 100 100 100 100 100 100 100 100 100 100 100 100 99 84 100 100 100 100 13 9 5
5 5 85 100 100 100 64 51 42 47 100 100 100 100 100 100 100 100 100 100 100 100 100 100 100 100 100 100 100 96 100 100 100 100 100 100 100 100 100 100 77 68 34
5 29 12 100 100 100 100 69 100 37 30 100 100 100 100 100 100 100 100 100 99 100 97 100 100 100 100 100 75 98 100 100 100 100 100 100 100 100 100 100 99 100 71

GFSMW_prec_cloud_243.txt.gz
Cloud_Cover
100 96 6 100 5 0 4 0 0 0 58 100 100 100 10 93 100 10 46 5 5 5 5 5 3 5 17 100 100 98 94 100 100 100 100 100 100 100 8 6 99 60 7
61 100 97 34 0 0 0 1 0 0 2 100 100 100 100 14 100 100 3 5 16 5 5 5 2 3 4 21 81 90 71 97 100 98 99 100 100 84 52 46 98 89 5
100 100 78 69 3 19 1 65 0 0 0 2 99 100 100 79 95 100 35 5 100 41 5 72 11 2 5 5 7 10 49 40 100 100 100 100 100 74 5 8 81 5 11
100 100 100 95 5 8 4 1 5 0 0 0 3 79 61 100 83 91 87 92 100 100 92 80 92 9 5 5 17 12 5 61 96 79 100 77 13 93 6 30 84 91 88
100 100 62 100 90 47 8 0 0 0 0 0 0 1 5 100 100 100 100 100 100 54 98 100 100 73 15 10 48 13 96 100 66 6 17 77 20 54 12 100 100 100 43
100 100 100 19 5 4 4 0 0 1 3 0 0 0 5 19 73 100 100 100 100 100 100 100 100 100 100 80 19 18 54 96 95 93 65 88 66 58 86 14 20 8 5
100 100 100 85 53 43 3 0 0 12 2 0 5 0 3 5 5 36 94 100 100 100 100 100 100 100 100 100 99 76 88 98 96 98 100 100 41 56 39 25 44 8 5
100 100 100 90 100 100 11 1 3 95 5 1 75 6 0 0 2 25 68 76 100 100 68 100 100 100 100 100 100 100 99 99 100 100 99 96 57 74 38 23 88 80 86
100 100 42 15 77 5 0 0 0 14 74 4 0 0 0 0 0 0 88 100 100 100 100 100 100 100 100 100 100 100 100 100 98 100 100 100 90 72 84 83 100 100 98
100 100 100 100 74 2 0 2 0 1 9 44 1 1 5 0 0 1 63 100 100 100 100 100 100 100 97 100 100 100 100 100 87 100 100 100 100 98 89 100 98 96 84
100 100 64 46 10 2 0 5 3 0 2 5 6 0 3 1 6 92 100 100 100 100 100 100 100 100 100 100 100 100 100 100 100 100 100 100 100 100 100 98 99 43 16
100 96 32 5 3 0 0 4 4 0 2 4 3 0 0 26 98 100 100 100 100 100 100 100 100 100 100 100 100 100 100 100 99 100 100 100 100 100 100 100 90 100 47
92 18 3 31 100 57 1 0 0 0 2 92 6 0 0 10 100 100 100 99 100 100 100 100 100 100 100 100 100 100 100 100 100 100 100 100 100 100 100 100 100 100 98
77 8 5 99 100 75 9 0 0 3 98 40 5 4 3 5 100 100 100 100 100 100 100 100 100 100 100 100 100 100 100 100 100 100 100 100 100 100 100 100 100 100 100
100 76 43 3 56 62 6 16 27 16 25 19 88 36 5 64 72 100 100 100 100 100 100 100 100 100 100 100 100 100 100 100 100 100 100 100 100 100 100 100 100 100 100
100 100 100 100 8 5 1 20 78 97 100 100 100 100 93 100 100 100 100 100 100 100 100 100 100 100 100 100 100 100 100 100 100 100 100 100 100 100 100 100 100 100 100
100 92 6 23 58 47 13 9 69 100 100 100 100 100 100 100 100 100 100 100 100 100 100 100 100 100 100 100 100 100 100 100 100 100 100 100 100 100 100 100 100 100 92
100 100 100 100 86 18 78 97 100 100 100 100 100 100 100 100 100 100 100 100 100 100 100 100 100 100 100 100 100 100 100 100 100 100 100 100 100 100 100 100 100 99 100
100 100 100 100 100 100 100 100 100 80 90 100 79 100 100 100 100 100 100 100 100 100 100 100 100 100 100 100 100 100 100 100 100 100 100 100 100 100 100 99 93 59 100
100 100 100 100 100 100 100 98 5 9 34 31 67 85 100 100 100 100 100 100 100 100 100 100 100 100 100 100 100 100 100 100 100 100 100 100 100 99 100 100 100 100 100
100 100 100 100 100 100 78 58 5 5 2 5 5 41 99 100 100 100 100 100 100 100 100 100 100 100 100 100 100 100 100 100 100 100 100 100 100 100 100 100 100 100 100
100 100 100 100 100 100 93 65 54 27 17 4 6 39 65 100 100 100 100 100 100 100 100 100 100 100 100 100 100 100 100 100 100 100 100 100 100 100 100 100 100 100 100
100 100 100 100 100 100 94 84 66 100 92 69 5 35 76 100 100 100 100 100 100 100 100 100 100 100 100 100 100 100 100 100 100 100 100 100 100 100 100 100 100 100 100
100 100 100 100 100 100 100 100 100 94 100 100 85 27 86 100 100 100 100 100 100 100 100 100 99 100 100 100 100 100 100 100 100 100 100 100 100 100 100 100 100 100 100
100 100 100 100 100 100 100 100 100 67 52 100 100 99 100 100 100 100 100 100 100 100 100 100 100 100 100 100 100 100 100 100 100 100 100 100 100 100 100 100 100 100 100
100 100 100 100 100 100 100 100 100 100 100 100 100 100 100 100 100 100 100 100 100 100 100 100 100 100 100 100 100 100 100 100 100 100 100 100 100 100 100 100 100 100 100